Simultaneous Nadir Overpasses (SNOs) Predictions

Prediction of SNOs between NOAA-19 and NPP Satellite Orbit:

Table of predicted SNOs for the next 14.0 days since TLE Epoch: 7/12/2014
Index Date (NOAA-19) Time (NOAA-19) Lat,Lon (NOAA-19) SZA (NOAA-19 ) Date (NPP) Time (NPP) Lat,Lon (NPP) SZA (NPP ) Distance(km) Time Diff (sec)
1 07/24/2014 14:13:44 -81.02, 92.44 114.68 07/24/2014 14:14:52 -81.02, 92.56 114.74 2.11 68
2 07/24/2014 15:04:39 81.01, -99.79 65.25 07/24/2014 15:05:36 81.01, -99.81 65.22 0.37 57
3 07/24/2014 15:55:46 -81.01, 67.50 114.75 07/24/2014 15:56:21 -81.01, 67.56 114.78 1.04 35
4 07/24/2014 16:46:42 81.01,-125.10 65.24 07/24/2014 16:47:06 81.01,-125.18 65.24 1.30 24
5 07/24/2014 17:37:49 -81.01, 42.19 114.77 07/24/2014 17:37:51 -81.01, 42.19 114.77 0.19 2
6 07/24/2014
